[[{"header":{"parameterUnit":"m.s-1","parameterCategory":1,"la1":30.2991,"la2":30.254,"lo1":-89.0895,"lo2":-89.0444,"dy":0.0017,"dx":0.0017,"nx":28,"ny":28,"refTime":"2023-09-18T21:00:00:Z","depth":0,"parameterNumber":2,"parameterNumberName":"U-component_of_WINDS"},"data":[0,0,0,0,0,0,0,0,0,0,0,0,0,0,0,0,0,0,0,0,0,0,0,0,0,0,0,0,0,0,0,0,0,0,0,0,0,0,0,0,0,0,0,0,0,0,0,0,0,0,0,0,0,0,0,0,0,0,-4.3635,-4.3636,0,-4.3743,-4.3744,-4.3746,-4.3667,-4.3664,-4.366,-4.3657,-4.3776,-4.3782,-4.3788,0,0,0,0,0,0,0,0,0,0,0,0,0,-4.3368,-4.3374,-4.3635,-4.3636,-4.3637,-4.3743,-4.3744,-4.3746,-4.3668,-4.3663,-4.3659,-4.3655,-4.3774,-4.3781,-4.3789,0,0,0,0,0,0,0,0,0,0,0,0,0,-4.3481,-4.3375,-4.3634,-4.3611,-4.361,-4.3743,-4.3744,-4.3746,-4.3669,-4.3663,-4.3658,-4.3653,-4.3771,-4.3781,-4.379,-4.3955,0,0,-4.382,-4.3824,0,0,0,0,0,0,0,0,-4.3475,-4.3491,-4.3613,-4.3613,-4.3612,-4.3686,-4.3694,-4.3816,-4.367,-4.3647,-4.3657,-4.3651,-4.3751,-4.3762,-4.3794,-4.396,-4.3965,-4.382,-4.3826,-4.383,-4.3833,0,0,0,0,0,0,0,-4.3467,-4.3486,-4.3678,-4.3615,-4.3614,-4.3598,-4.3608,-4.3717,-4.3727,-4.3648,-4.3643,-4.3656,-4.3749,-4.3785,-4.3796,-4.3967,-4.382,-4.3829,-4.3835,-4.3838,-4.4276,-4.4282,0,0,0,0,0,0,-4.3461,-4.348,-4.3674,-4.3681,-4.3529,-4.3607,-4.3618,-4.3668,-4.3725,-4.3729,-4.366,-4.3652,-4.3771,-4.3785,-4.38,-4.3998,-4.383,-4.3839,-4.3845,-4.427,-4.4278,-4.4284,0,0,0,0,0,0,-4.3455,-4.3479,-4.367,-4.3579,-4.3602,-4.3617,-4.3673,-4.3673,-4.3707,-4.3735,-4.3737,-4.3694,-4.3767,-4.3786,-4.3917,-4.4001,-4.3844,-4.3852,-4.4264,-4.4273,-4.4281,-4.4393,0,0,0,0,0,0,-4.3448,-4.3477,-4.3538,-4.3581,-4.3607,-4.3783,-4.3678,-4.3678,-4.3723,-4.3713,-4.3767,-4.3771,-4.3765,-4.3903,-4.3926,-4.4011,-4.386,-4.4256,-4.4268,-4.4278,-4.4382,-4.4405,-4.4424,0,0,0,0,0,-4.3439,-4.3566,-4.3541,-4.3565,-4.3683,-4.3787,-4.3803,-4.3791,-4.373,-4.3793,-4.3811,-4.3769,-4.3987,-4.3917,-4.3943,-4.4032,-4.4251,-4.4264,-4.4277,-4.4373,-4.4401,-4.4424,0,0,0,0,0,0,-4.3535,-4.3571,-4.3544,-4.3689,-4.3735,-4.3774,-4.3852,-4.382,-4.3887,-4.3875,-4.386,-4.3873,-4.4009,-4.4033,-4.3954,-4.4195,-4.411,-4.4129,-4.4174,-4.42,-4.4221,-4.4213,-4.3868,0,0,0,0,0,-4.3572,-4.3652,-4.368,-4.3806,-4.383,-4.3838,-4.3883,-4.3869,-4.3918,-4.3938,-4.3965,-4.4016,-4.4096,-4.415,-4.4225,-4.4385,-4.4397,-4.446,-4.4481,-4.4498,-4.4515,-4.4604,-4.4632,-4.4327,-4.4327,-4.4327,0,0,-4.3652,-4.3682,-4.3733,-4.3826,-4.386,-4.3946,-4.3855,-4.3948,-4.4012,-4.3953,-4.4077,-4.4099,-4.4156,-4.4302,-4.4368,-4.4326,-4.4602,-4.4515,-4.4528,-4.4536,-4.462,-4.4649,-4.4675,-4.4336,-4.4334,-4.4333,0,0,-4.384,-4.387,-4.3978,-4.4014,-4.4067,-4.4071,-4.4097,-4.4141,-4.4152,-4.4276,-4.4234,-4.4312,-4.4449,-4.4492,-4.4531,-4.4738,-4.4703,-4.4763,-4.4873,-4.496,-4.4984,-4.5005,-4.5081,-4.5108,-4.478,-4.478,-4.478,0,-4.3933,-4.4057,-4.4038,-4.4135,-4.4179,-4.4127,-4.4238,-4.4275,-4.4351,-4.4383,-4.4335,-4.4508,-4.4542,-4.4699,-4.4749,-4.4782,-4.4814,-4.4757,-4.4982,-4.5003,-4.5023,-4.5094,-4.5123,-4.4787,-4.4786,-4.4785,-4.4785,0,-4.4169,-4.4256,-4.4338,-4.441,-4.4462,-4.4566,-4.4566,-4.4622,-4.4605,-4.4615,-4.4744,-4.4783,-4.4866,-4.4902,-4.4887,-4.5058,-4.5031,-4.4983,-4.4897,-4.5059,-4.5126,-4.5153,-4.4797,-4.4794,-4.4792,-4.4791,0,0,-4.4421,-4.4481,-4.4512,-4.4544,-4.4599,-4.4668,-4.4771,-4.4849,-4.4899,-4.4953,-4.5041,-4.516,-4.5115,-4.5161,-4.515,-4.5226,-4.539,-4.5169,-4.517,-4.521,-4.5583,-4.562,-4.5652,-4.5367,-4.5372,-4.5376,-4.5579,0,-4.4613,-4.4788,-4.4776,-4.4943,-4.5025,-4.4977,-4.5067,-4.5113,-4.5126,-4.5199,-4.5214,-4.5299,-4.5233,-4.5261,-4.5334,-4.5354,-4.5465,-4.5339,-4.5451,-4.5455,-4.5439,-4.5686,-4.5725,-4.5915,-4.5605,-4.5609,-4.5613,0,-4.4859,-4.492,-4.5095,-4.5139,-4.5173,-4.5253,-4.5326,-4.5395,-4.5447,-4.5451,-4.5503,-4.548,-4.5587,-4.5499,-4.5648,-4.5563,-4.5608,-4.5626,-4.5633,-4.5644,-4.5544,-4.5706,-4.5975,-4.6004,-4.5653,-4.565,-4.5647,0,-4.5027,-4.5153,-4.5274,-4.5304,-4.5357,-4.5416,-4.5442,-4.5487,-4.5536,-4.5601,-4.5633,-4.571,-4.5753,-4.5814,-4.5815,-4.575,-4.5967,-4.5878,-4.5976,-4.5976,-4.6024,-4.6022,-4.6306,-4.6052,-4.6052,-4.6051,-4.605,0,-4.5243,-4.5353,-4.535,-4.5425,-4.5547,-4.5533,-4.5655,-4.5675,-4.5717,-4.5797,-4.5762,-4.5839,-4.5833,-4.5912,-4.5913,-4.6038,-4.6058,-4.6067,-4.6066,-4.607,-4.607,-4.61,-4.6088,-4.6059,-4.6057,-4.6055,-4.6054,0,-4.5451,-4.5454,-4.5583,-4.5623,-4.5636,-4.5724,-4.576,-4.5833,-4.5842,-4.5945,-4.5968,-4.5985,-4.6076,-4.6082,-4.6188,-4.6188,-4.6341,-4.6325,-4.6322,-4.632,-4.6419,-4.641,-4.6734,-4.6777,-4.6494,-4.6496,-4.6499,0,-4.5589,-4.5672,-4.572,-4.577,-4.5799,-4.588,-4.5929,-4.592,-4.5973,-4.6039,-4.6105,-4.6191,-4.626,-4.6409,-4.6433,-4.6514,-4.6501,-4.6609,-4.6513,-4.6516,-4.6505,-4.65,-4.651,-4.6628,-4.6631,-4.6634,-4.6636,0,-4.5835,-4.5832,-4.5902,-4.5975,-4.6034,-4.6091,-4.6144,-4.6188,-4.6185,-4.6248,-4.6339,-4.6392,-4.65,-4.6588,-4.6668,-4.6697,-4.6668,-4.6666,-4.6693,-4.6699,-4.6695,-4.67,-4.6375,-4.6658,-4.6656,-4.6655,-4.6653,-4.6652,-4.6013,-4.6084,-4.613,-4.6211,-4.6249,-4.63,-4.637,-4.6389,-4.6464,-4.6548,-4.6539,-4.6641,-4.6694,-4.6797,-4.6834,-4.6916,-4.6879,-4.6919,-4.6929,-4.6939,-4.695,-4.6681,-4.693,-4.693,-4.6929,-4.6928,-4.6928,0,-4.6257,-4.6284,-4.6358,-4.6433,-4.6498,-4.6461,-4.6518,-4.6576,-4.6665,-4.6715,-4.6783,-4.689,-4.6975,-4.7006,-4.709,-4.715,-4.7139,-4.7173,-4.7169,-4.7177,-4.6977,-4.6945,-4.7181,-4.7181,-4.7181,-4.718,-4.718,-4.718,-4.6392,-4.6512,-4.6515,-4.6656,-4.6683,-4.678,-4.6816,-4.6864,-4.6904,-4.7023,-4.7093,-4.7112,-4.7155,-4.7243,-4.7321,-4.7328,-4.7362,-4.7402,-4.7404,-4.7216,-4.7191,-4.7167,-4.7137,-4.7409,-4.7409,-4.7597,-4.7599,-4.76]},{"header":{"parameterUnit":"m.s-1","parameterCategory":1,"la1":30.2991,"la2":30.254,"lo1":-89.0895,"lo2":-89.0444,"dy":0.0017,"dx":0.0017,"nx":28,"ny":28,"refTime":"2023-09-18T21:00:00:Z","depth":0,"parameterNumber":3,"parameterNumberName":"V-component_of_WINDS"},"data":[0,0,0,0,0,0,0,0,0,0,0,0,0,0,0,0,0,0,0,0,0,0,0,0,0,0,0,0,0,0,0,0,0,0,0,0,0,0,0,0,0,0,0,0,0,0,0,0,0,0,0,0,0,0,0,0,0,0,-0.655,-0.655,0,-0.6536,-0.6536,-0.6536,-0.65,-0.6499,-0.6498,-0.6498,-0.6487,-0.6487,-0.6488,0,0,0,0,0,0,0,0,0,0,0,0,0,-0.6549,-0.6549,-0.655,-0.655,-0.655,-0.6536,-0.6536,-0.6536,-0.65,-0.6499,-0.6498,-0.6497,-0.6487,-0.6487,-0.6488,0,0,0,0,0,0,0,0,0,0,0,0,0,-0.6544,-0.6549,-0.655,-0.653,-0.6528,-0.6536,-0.6536,-0.6536,-0.65,-0.6499,-0.6498,-0.6497,-0.6487,-0.6487,-0.6488,-0.6515,0,0,-0.649,-0.649,0,0,0,0,0,0,0,0,-0.6544,-0.6544,-0.6533,-0.6532,-0.653,-0.6518,-0.6531,-0.6529,-0.6501,-0.6511,-0.6498,-0.6496,-0.6499,-0.6498,-0.6498,-0.6514,-0.6514,-0.649,-0.649,-0.6491,-0.6491,0,0,0,0,0,0,0,-0.6545,-0.6544,-0.6545,-0.6533,-0.6531,-0.6523,-0.6521,-0.6531,-0.6512,-0.651,-0.6507,-0.6506,-0.6497,-0.6498,-0.6498,-0.6514,-0.649,-0.649,-0.6491,-0.6491,-0.6551,-0.6553,0,0,0,0,0,0,-0.6547,-0.6545,-0.6545,-0.6544,-0.6534,-0.6524,-0.6522,-0.6523,-0.6511,-0.6508,-0.6507,-0.6504,-0.6497,-0.6497,-0.6497,-0.6528,-0.6491,-0.6491,-0.6491,-0.655,-0.6552,-0.6553,0,0,0,0,0,0,-0.6548,-0.6548,-0.6546,-0.6544,-0.6543,-0.6525,-0.6527,-0.6524,-0.6524,-0.6509,-0.6506,-0.6511,-0.6496,-0.6496,-0.651,-0.6527,-0.6491,-0.6492,-0.6549,-0.6551,-0.6552,-0.6591,0,0,0,0,0,0,-0.6548,-0.6548,-0.6558,-0.6544,-0.6543,-0.6559,-0.6528,-0.6524,-0.6525,-0.6521,-0.6512,-0.6509,-0.6495,-0.651,-0.6511,-0.6528,-0.6492,-0.6547,-0.655,-0.6552,-0.6588,-0.6594,-0.6599,0,0,0,0,0,-0.6548,-0.657,-0.6558,-0.6559,-0.6555,-0.656,-0.6559,-0.6542,-0.6526,-0.6536,-0.6526,-0.6509,-0.6525,-0.6511,-0.6513,-0.653,-0.6546,-0.6549,-0.6552,-0.6586,-0.6593,-0.6599,0,0,0,0,0,0,-0.6588,-0.6568,-0.6555,-0.6573,-0.6568,-0.6554,-0.6566,-0.655,-0.655,-0.6547,-0.6527,-0.6525,-0.6542,-0.6537,-0.6522,-0.6555,-0.6533,-0.6536,-0.6558,-0.6565,-0.657,-0.6572,-0.6493,0,0,0,0,0,-0.6598,-0.6603,-0.6586,-0.6604,-0.6602,-0.6584,-0.6586,-0.6572,-0.6567,-0.6565,-0.6557,-0.6553,-0.6557,-0.656,-0.6563,-0.6586,-0.6584,-0.6599,-0.6604,-0.6608,-0.6612,-0.6624,-0.6631,-0.6562,-0.6562,-0.6562,0,0,-0.6621,-0.6611,-0.6615,-0.6611,-0.6606,-0.6612,-0.6583,-0.6591,-0.6596,-0.6567,-0.658,-0.6573,-0.6568,-0.6586,-0.6594,-0.6583,-0.663,-0.6612,-0.6616,-0.6617,-0.6628,-0.6634,-0.664,-0.6564,-0.6563,-0.6563,0,0,-0.6665,-0.6658,-0.6672,-0.6666,-0.6658,-0.6646,-0.6649,-0.6637,-0.6631,-0.6643,-0.6621,-0.6627,-0.6634,-0.6631,-0.6631,-0.6672,-0.6657,-0.6674,-0.6703,-0.6715,-0.672,-0.6725,-0.6741,-0.6746,-0.6677,-0.6677,-0.6677,0,-0.6695,-0.6703,-0.6681,-0.669,-0.669,-0.6662,-0.6677,-0.6673,-0.6666,-0.6667,-0.6653,-0.6661,-0.6656,-0.6674,-0.6684,-0.6684,-0.6688,-0.6676,-0.6721,-0.6725,-0.6729,-0.6744,-0.675,-0.6679,-0.6679,-0.6679,-0.6679,0,-0.674,-0.6746,-0.6758,-0.6751,-0.6751,-0.6763,-0.6744,-0.6747,-0.6734,-0.6723,-0.6736,-0.6728,-0.6729,-0.6731,-0.6719,-0.6747,-0.6741,-0.6724,-0.6702,-0.6739,-0.6752,-0.6758,-0.6682,-0.6682,-0.6681,-0.668,0,0,-0.6812,-0.6791,-0.6796,-0.6792,-0.678,-0.6785,-0.6795,-0.6794,-0.6798,-0.6794,-0.6803,-0.6809,-0.6793,-0.6792,-0.6779,-0.6789,-0.6824,-0.6771,-0.6771,-0.6783,-0.6856,-0.6869,-0.6876,-0.6812,-0.6813,-0.6814,-0.6857,0,-0.6855,-0.6871,-0.6851,-0.6872,-0.6877,-0.685,-0.6859,-0.6853,-0.6843,-0.6847,-0.6836,-0.6841,-0.6819,-0.6819,-0.6828,-0.6818,-0.6838,-0.6814,-0.6822,-0.6823,-0.6826,-0.6883,-0.6898,-0.6938,-0.6862,-0.6862,-0.6863,0,-0.6907,-0.6904,-0.6925,-0.6911,-0.6912,-0.6921,-0.6918,-0.6922,-0.6914,-0.6906,-0.6905,-0.6888,-0.6898,-0.6874,-0.6888,-0.6872,-0.6874,-0.6869,-0.687,-0.6872,-0.6847,-0.6888,-0.6951,-0.6957,-0.6871,-0.6871,-0.687,0,-0.6959,-0.696,-0.6972,-0.697,-0.6953,-0.696,-0.6954,-0.6945,-0.6945,-0.6943,-0.6944,-0.6943,-0.6943,-0.6944,-0.6927,-0.6911,-0.6944,-0.6919,-0.6939,-0.6939,-0.6949,-0.6949,-0.7014,-0.6947,-0.6947,-0.6947,-0.6947,0,-0.701,-0.7024,-0.6995,-0.7003,-0.7018,-0.6995,-0.7011,-0.7002,-0.6994,-0.7001,-0.6977,-0.6984,-0.6961,-0.6965,-0.6952,-0.6966,-0.6966,-0.6961,-0.6958,-0.6964,-0.6965,-0.6967,-0.6964,-0.6948,-0.6948,-0.6948,-0.6947,0,-0.7071,-0.7052,-0.7064,-0.7047,-0.7043,-0.7055,-0.704,-0.7047,-0.7035,-0.7043,-0.7044,-0.7025,-0.7029,-0.7011,-0.7013,-0.7004,-0.7026,-0.7017,-0.7028,-0.7026,-0.7047,-0.7046,-0.7118,-0.7126,-0.7052,-0.7053,-0.7054,0,-0.7106,-0.7116,-0.7099,-0.7101,-0.7095,-0.7099,-0.7098,-0.7076,-0.7077,-0.7068,-0.7077,-0.7078,-0.7078,-0.7086,-0.7073,-0.7074,-0.7066,-0.7091,-0.7066,-0.7072,-0.7068,-0.7068,-0.7069,-0.7097,-0.7098,-0.7098,-0.7099,0,-0.717,-0.716,-0.716,-0.7157,-0.7157,-0.7153,-0.7149,-0.7152,-0.7127,-0.713,-0.7132,-0.7132,-0.7132,-0.7135,-0.7132,-0.7127,-0.711,-0.7106,-0.7111,-0.7119,-0.7125,-0.7123,-0.7044,-0.7105,-0.7105,-0.7104,-0.7104,-0.7104,-0.722,-0.7228,-0.7217,-0.7217,-0.7211,-0.7207,-0.7212,-0.72,-0.7201,-0.7199,-0.7185,-0.7191,-0.7182,-0.7177,-0.7173,-0.7178,-0.7166,-0.7173,-0.7175,-0.7178,-0.7182,-0.7123,-0.7177,-0.7177,-0.7177,-0.7176,-0.7176,0,-0.7284,-0.7275,-0.7276,-0.7269,-0.727,-0.725,-0.7244,-0.7246,-0.7251,-0.7244,-0.7244,-0.7247,-0.7248,-0.7235,-0.7235,-0.7241,-0.7233,-0.7242,-0.7242,-0.7241,-0.7192,-0.7188,-0.7248,-0.7248,-0.7248,-0.7248,-0.7248,-0.7248,-0.7318,-0.733,-0.7318,-0.7326,-0.7317,-0.7321,-0.7319,-0.7315,-0.7309,-0.7313,-0.7314,-0.7304,-0.7295,-0.7293,-0.7294,-0.729,-0.7292,-0.7304,-0.7298,-0.7252,-0.7245,-0.7238,-0.7235,-0.7304,-0.7304,-0.7347,-0.7348,-0.7348]}]]